Saguache, CO

1:17 PM MDT on September 19, 2017 (GMT -0600)
Saguache

Weather History for K04V - March, 2014

Change the Weather History Date:

Saturday, March 1, 2014

  Actual Average (KALS) Record (KALS)
Temperature  
Mean Temperature 37 °F -  
Max Temperature 50 °F 45 °F 61 °F (1986)
Min Temperature 24 °F 12 °F -7 °F (1971)
Degree Days  
Heating Degree Days 28    
Moisture  
Dew Point 28 °F    
Average Humidity 77    
Maximum Humidity 100    
Minimum Humidity 32    
Precipitation  
Precipitation 0.01 in - - ()
Sea Level Pressure  
Sea Level Pressure 29.85 in    
Wind  
Wind Speed 7 mph (SW)    
Max Wind Speed 23 mph    
Max Gust Speed 38 mph    
Visibility 10 miles    
Events Rain    
Averages and records for this station are not official NWS values.
T = Trace of Precipitation, MM = Missing Value Source: NWS Daily Summary

Daily Weather History Graph

Daily Weather History Graph

Search for Another Location

Airport or City:

Trip Planner

Search our weather history database for the weather conditions in past years. The results will help you decide how hot, cold, wet, or windy it might be!

Date:

Astronomy

Mar. 01, 2014 Rise Set
Actual Time 6:36 AM MST 5:58 PM MST
Civil Twilight 6:09 AM MST 6:24 PM MST
Nautical Twilight 5:39 AM MST 6:55 PM MST
Astronomical Twilight 5:08 AM MST 7:25 PM MST
Moon 6:32 AM MST (3/1) 6:47 PM MST (3/1)
Length of Visible Light 12h 14m
Length of Day
11h 21m
New Moon, 0% of the Moon is Illuminated
Mar 1
New Moon
Mar 8
First Quarter
Mar 16
Full
Mar 23
Last Quarter
Mar 30
New

Hourly Weather History & Observations

Time (MST) Temp. Windchill Dew Point Humidity Pressure Visibility Wind Dir Wind Speed Gust Speed Precip Events Conditions
12:12 AM 26.6 °F 20.0 °F 23.0 °F 86% 29.92 in 10.0 mi NNW 5.8 mph - N/A   Clear
12:32 AM 26.6 °F 21.2 °F 23.0 °F 86% 29.90 in 10.0 mi NNW 4.6 mph - N/A   Clear
12:52 AM 26.6 °F 19.1 °F 23.0 °F 86% 29.90 in 10.0 mi NW 6.9 mph - N/A   Clear
1:12 AM 24.8 °F 19.1 °F 23.0 °F 93% 29.90 in 10.0 mi NW 4.6 mph - N/A   Clear
1:31 AM 26.6 °F 20.0 °F 23.0 °F 86% 29.88 in 10.0 mi North 5.8 mph - N/A   Clear
1:52 AM 26.6 °F - 23.0 °F 86% 29.88 in 10.0 mi Calm Calm - N/A   Clear
2:12 AM 24.8 °F 19.1 °F 23.0 °F 93% 29.88 in 10.0 mi WNW 4.6 mph - N/A   Clear
2:32 AM 24.8 °F 16.9 °F 23.0 °F 93% 29.86 in 10.0 mi WNW 6.9 mph - N/A   Clear
2:52 AM 24.8 °F 20.5 °F 23.0 °F 93% 29.86 in 10.0 mi WNW 3.5 mph - N/A   Clear
3:12 AM 24.8 °F 20.5 °F 21.2 °F 86% 29.86 in 10.0 mi NW 3.5 mph - N/A   Clear
3:32 AM 24.8 °F - 21.2 °F 86% 29.84 in 10.0 mi Calm Calm - N/A   Clear
3:52 AM 24.8 °F - 21.2 °F 86% 29.85 in 10.0 mi Calm Calm - N/A   Scattered Clouds
4:12 AM 24.8 °F - 23.0 °F 93% 29.86 in 10.0 mi Calm Calm - N/A   Scattered Clouds
4:32 AM 24.8 °F - 23.0 °F 93% 29.85 in 7.0 mi Calm Calm - N/A   Mostly Cloudy
4:52 AM 30.2 °F 21.3 °F 26.6 °F 86% 29.84 in 10.0 mi ESE 10.4 mph - N/A   Overcast
5:11 AM 32.0 °F 26.4 °F 30.2 °F 93% 29.82 in 10.0 mi ESE 5.8 mph - N/A   Overcast
5:32 AM 33.8 °F 27.7 °F 30.2 °F 87% 29.82 in 7.0 mi SE 6.9 mph - N/A   Overcast
5:52 AM 33.8 °F 26.4 °F 32.0 °F 93% 29.83 in 10.0 mi SSE 9.2 mph - N/A   Overcast
6:12 AM 32.0 °F 24.2 °F 32.0 °F 100% 29.81 in 7.0 mi SSE 9.2 mph - N/A   Overcast
6:32 AM 33.8 °F 27.7 °F 32.0 °F 93% 29.82 in 10.0 mi ESE 6.9 mph - N/A   Overcast
6:52 AM 33.8 °F 25.3 °F 32.0 °F 93% 29.81 in 7.0 mi East 11.5 mph - N/A   Overcast
7:12 AM 33.8 °F 27.0 °F 32.0 °F 93% 29.82 in 5.0 mi ESE 8.1 mph 18.4 mph N/A   Overcast
7:32 AM 33.8 °F 26.4 °F 32.0 °F 93% 29.83 in 4.0 mi SE 9.2 mph - N/A   Overcast
7:52 AM 33.8 °F 25.8 °F 32.0 °F 93% 29.83 in 1.5 mi SE 10.4 mph - 0.01 in   Overcast
8:11 AM 33.8 °F 27.7 °F 32.0 °F 93% 29.84 in 10.0 mi SE 6.9 mph - N/A   Overcast
8:32 AM 33.8 °F 26.4 °F 33.8 °F 100% 29.82 in 10.0 mi SSE 9.2 mph - N/A   Overcast
8:52 AM 35.6 °F 28.6 °F 33.8 °F 93% 29.82 in 10.0 mi SE 9.2 mph - N/A   Overcast
9:12 AM 35.6 °F 28.0 °F 33.8 °F 93% 29.83 in 10.0 mi SE 10.4 mph - N/A   Overcast
9:32 AM 35.6 °F 28.6 °F 33.8 °F 93% 29.83 in 10.0 mi SE 9.2 mph - N/A Rain Light Rain
9:52 AM 37.4 °F 30.3 °F 35.6 °F 93% 29.82 in 10.0 mi East 10.4 mph - N/A   Overcast
10:12 AM 39.2 °F 35.0 °F 37.4 °F 93% 29.83 in 10.0 mi South 5.8 mph 9.2 mph N/A   Overcast
10:32 AM 41.0 °F 35.2 °F 37.4 °F 87% 29.80 in 10.0 mi SSW 9.2 mph - N/A   Overcast
10:52 AM 39.2 °F 35.0 °F 35.6 °F 87% 29.81 in 10.0 mi SW 5.8 mph - N/A   Overcast
11:12 AM 39.2 °F 33.6 °F 35.6 °F 87% 29.84 in 10.0 mi WNW 8.1 mph - N/A   Overcast
11:32 AM 39.2 °F 34.2 °F 35.6 °F 87% 29.84 in 10.0 mi NW 6.9 mph - N/A   Overcast
11:48 AM 41.0 °F 35.8 °F 35.6 °F 81% 29.83 in 10.0 mi NNW 8.1 mph - N/A   Overcast
12:12 PM 39.2 °F 30.5 °F 35.6 °F 87% 29.84 in 5.0 mi NNW 16.1 mph 20.7 mph N/A   Drizzle
12:32 PM 42.8 °F 35.4 °F 37.4 °F 81% 29.81 in 10.0 mi NNW 15.0 mph 18.4 mph N/A   Mostly Cloudy
12:52 PM 42.8 °F 36.6 °F 35.6 °F 76% 29.79 in 10.0 mi NNW 11.5 mph 17.3 mph N/A   Clear
1:12 PM 46.4 °F 39.0 °F 32.0 °F 57% 29.78 in 10.0 mi NNW 19.6 mph 23.0 mph N/A   Clear
1:32 PM 48.2 °F - 32.0 °F 54% 29.79 in 10.0 mi WNW 10.4 mph - N/A   Scattered Clouds
1:52 PM 48.2 °F - 28.4 °F 46% 29.78 in 10.0 mi NW 9.2 mph 17.3 mph N/A   Scattered Clouds
2:12 PM 46.4 °F 42.9 °F 32.0 °F 57% 29.80 in 10.0 mi WSW 6.9 mph 19.6 mph N/A   Mostly Cloudy
2:32 PM 50.0 °F - 23.0 °F 35% 29.78 in 10.0 mi WNW 11.5 mph 18.4 mph N/A   Scattered Clouds
2:52 PM 50.0 °F - 23.0 °F 35% 29.78 in 10.0 mi NNW 23.0 mph 38.0 mph N/A   Clear
3:12 PM 50.0 °F - 21.2 °F 32% 29.78 in 10.0 mi WNW 21.9 mph 27.6 mph N/A   Clear
3:31 PM 48.2 °F - 21.2 °F 34% 29.79 in 10.0 mi WNW 17.3 mph 26.5 mph N/A   Clear
3:52 PM 48.2 °F - 19.4 °F 32% 29.80 in 10.0 mi WNW 15.0 mph 31.1 mph N/A   Mostly Cloudy
4:12 PM 44.6 °F 38.8 °F 28.4 °F 53% 29.81 in 10.0 mi SSW 11.5 mph 18.4 mph N/A   Mostly Cloudy
4:32 PM 44.6 °F 38.4 °F 24.8 °F 46% 29.80 in 10.0 mi SSW 12.7 mph 23.0 mph N/A   Scattered Clouds
4:51 PM 44.6 °F 37.4 °F 23.0 °F 43% 29.80 in 10.0 mi SW 16.1 mph 21.9 mph N/A   Clear
5:12 PM 44.6 °F 37.2 °F 17.6 °F 34% 29.81 in 10.0 mi WNW 17.3 mph 23.0 mph N/A   Clear
5:32 PM 42.8 °F 34.5 °F 17.6 °F 36% 29.81 in 10.0 mi West 18.4 mph 25.3 mph N/A   Clear
5:52 PM 42.8 °F 36.2 °F 17.6 °F 36% 29.82 in 10.0 mi West 12.7 mph 26.5 mph N/A   Clear
6:11 PM 41.0 °F 34.7 °F 19.4 °F 42% 29.83 in 10.0 mi WNW 10.4 mph 18.4 mph N/A   Clear
6:32 PM 39.2 °F 32.0 °F 21.2 °F 49% 29.84 in 10.0 mi NW 11.5 mph - N/A   Clear
6:52 PM 37.4 °F 33.8 °F 24.8 °F 60% 29.86 in 10.0 mi NNE 4.6 mph - N/A   Clear
7:12 PM 35.6 °F 28.0 °F 24.8 °F 65% 29.87 in 10.0 mi East 10.4 mph - N/A   Clear
7:32 PM 33.8 °F 27.7 °F 24.8 °F 70% 29.88 in 10.0 mi East 6.9 mph - N/A   Scattered Clouds
7:52 PM 32.0 °F 28.7 °F 24.8 °F 75% 29.89 in 10.0 mi NE 3.5 mph - N/A   Clear
8:12 PM 33.8 °F - 24.8 °F 70% 29.90 in 10.0 mi Calm Calm - N/A   Scattered Clouds
8:32 PM 33.8 °F 30.8 °F 24.8 °F 70% 29.91 in 10.0 mi ENE 3.5 mph - N/A   Mostly Cloudy
8:51 PM 32.0 °F 24.8 °F 26.6 °F 80% 29.91 in 10.0 mi ESE 8.1 mph - N/A   Scattered Clouds
9:11 PM 32.0 °F 23.6 °F 28.4 °F 87% 29.91 in 10.0 mi ESE 10.4 mph - N/A   Clear
9:32 PM 32.0 °F 23.6 °F 30.2 °F 93% 29.92 in 10.0 mi SE 10.4 mph - N/A   Scattered Clouds
9:51 PM 32.0 °F 23.6 °F 30.2 °F 93% 29.93 in 10.0 mi ESE 10.4 mph - N/A   Overcast
10:12 PM 32.0 °F 25.6 °F 30.2 °F 93% 29.92 in 10.0 mi SSE 6.9 mph - N/A   Overcast
10:32 PM 32.0 °F 28.7 °F 30.2 °F 93% 29.93 in 10.0 mi SSE 3.5 mph - N/A   Overcast
10:52 PM 32.0 °F 28.7 °F 30.2 °F 93% 29.93 in 10.0 mi SSE 3.5 mph - N/A   Overcast
11:12 PM 32.0 °F 26.4 °F 30.2 °F 93% 29.93 in 10.0 mi SE 5.8 mph - N/A   Overcast
11:32 PM 32.0 °F - 30.2 °F 93% 29.93 in 10.0 mi Calm Calm - N/A   Overcast
11:52 PM 32.0 °F 28.7 °F 30.2 °F 93% 29.92 in 10.0 mi South 3.5 mph - N/A   Overcast